Погода в Пограничном

Беларусь     53°06′56″N   23°58′47″E
темп.,
°C
ветер,
м/с
пор.,
м/с
влажн.,
%
обл.,
%
осадки,
мм/ч
давл.,
гПа
погр.,
м
12 апреля, пн
пн1200:00+11ююв61556100 0.0 1021494
03:00+10ююв61457100 0.0 1021430
06:00+8ююв61360100 0.0 1020378
09:00+9юв61256100 0.0 1020432
12:00+14ююв7949100 0.0 1019858
15:00+14ююв6955100 0.0 10181043
18:00+13ю3663100 0.0 1017217
21:00+12ююв396898 0.0 1018241
13 апреля, вт
вт1300:00+11ююв2588100 0.8 1018120
03:00+8сз5893100 0.9 1019306
06:00+5ссз5988100 0.0 1021418
09:00+5с6984100 0.0 1022458
12:00+6с6876100 0.0 1022671
15:00+6с7880100 0.0 1022791
18:00+6с6873100 0.0 1022791
21:00+5с71177100 0.0 1022771
14 апреля, ср
ср1400:00+3ссз71292100 0.2 1022733
03:00+2с81494100 0.3 1021638
06:00+1с71496100 1.3 1020533
09:00+1ссз71497100 3.6 1020552
12:00+1с71497100 1.4 1020526
15:00+2с61297100 2.5 1019631
18:00+3с61298100 0.3 1018707
21:00+3с61398100 0.7 1018752
15 апреля, чт
чт1500:00+3с61198100 2.1 1017674
03:00+3ссв51098100 2.5 1016508
06:00+3ссв5998100 0.5 1016382
09:00+4ссв4898100 0.9 1016322
12:00+5всв4797100 0.6 1016460
15:00+5вюв4693100 0.6 1017485
18:00+6вюв249186 0.0 1018418
21:00+5юз1194100 0.2 101823
16 апреля, пт
пт1600:00+5сз2398100 2.1 1018111
03:00+5ссв4897100 2.8 1018314
06:00+5ссв4896100 0.1 1018397
09:00+6ссв4892100 0.1 1019465
12:00+7ссв5790100 0.0 1019571
15:00+7ссв5789100 0.1 1020631
18:00+8ссв5888100 0.0 1020614
21:00+7св51091100 0.0 1022470